Location: Chevoux
(46.3801°N, 4.9476°E)
Time: 16:47:28
(UTC+00:00)

Envisat - Pass Details

Date: 01 December 2021
Orbit: 764 x 766 km, 98.2° (Epoch: 16 January)

Event Time Altitude Azimuth Distance (km) Brightness Sun altitude
Rises 05:42:24 0° 5° (N) 3,245 6.1 -13.4°
Reaches altitude 10° 05:44:54 10° 356° (N) 2,314 5.3 -13.0°
Maximum altitude 05:49:24 33° 294° (WNW) 1,281 3.6 -12.3°
Drops below altitude 10° 05:53:52 10° 232° (SW) 2,299 5.2 -11.6°
Sets 05:56:21 0° 223° (SW) 3,220 6.0 -11.2°
